Year,Month,Day,Hour,Minute,Value (Times are PST for temperature in C)
2016,07,23,00,00,14.50
2016,07,23,00,01,14.50
2016,07,23,00,02,14.50
2016,07,23,00,03,14.50
2016,07,23,00,04,14.50
2016,07,23,00,05,14.50
2016,07,23,00,06,14.50
2016,07,23,00,07,14.50
2016,07,23,00,08,14.40
2016,07,23,00,09,14.40
2016,07,23,00,10,14.40
2016,07,23,00,11,14.40
2016,07,23,00,12,14.40
2016,07,23,00,13,14.40
2016,07,23,00,14,14.40
2016,07,23,00,15,14.40
2016,07,23,00,16,14.40
2016,07,23,00,17,14.40
2016,07,23,00,18,14.30
2016,07,23,00,19,14.30
2016,07,23,00,20,14.30
2016,07,23,00,21,14.30
2016,07,23,00,22,14.30
2016,07,23,00,23,14.30
2016,07,23,00,24,14.30
2016,07,23,00,25,14.30
2016,07,23,00,26,14.30
2016,07,23,00,27,14.30
2016,07,23,00,28,14.30
2016,07,23,00,29,14.30
2016,07,23,00,30,14.30
2016,07,23,00,31,14.30
2016,07,23,00,32,14.30
2016,07,23,00,33,14.30
2016,07,23,00,34,14.20
2016,07,23,00,35,14.30
2016,07,23,00,36,14.20
2016,07,23,00,37,14.20
2016,07,23,00,38,14.30
2016,07,23,00,39,14.30
2016,07,23,00,40,14.30
2016,07,23,00,41,14.30
2016,07,23,00,42,14.30
2016,07,23,00,43,14.30
2016,07,23,00,44,14.30
2016,07,23,00,45,14.30
2016,07,23,00,46,14.20
2016,07,23,00,47,14.20
2016,07,23,00,48,14.20
2016,07,23,00,49,14.20
2016,07,23,00,50,14.20
2016,07,23,00,51,14.20
2016,07,23,00,52,14.10
2016,07,23,00,53,14.10
2016,07,23,00,54,14.10
2016,07,23,00,55,14.10
2016,07,23,00,56,14.10
2016,07,23,00,57,14.10
2016,07,23,00,58,14.00
2016,07,23,00,59,14.00
2016,07,23,01,00,14.00
2016,07,23,01,01,14.00
2016,07,23,01,02,13.90
2016,07,23,01,03,13.90
2016,07,23,01,04,13.90
2016,07,23,01,05,13.90
2016,07,23,01,06,13.90
2016,07,23,01,07,13.90
2016,07,23,01,08,13.90
2016,07,23,01,09,13.90
2016,07,23,01,10,13.90
2016,07,23,01,11,13.90
2016,07,23,01,12,13.90
2016,07,23,01,13,13.90
2016,07,23,01,14,13.90
2016,07,23,01,15,13.90
2016,07,23,01,16,13.90
2016,07,23,01,17,13.90
2016,07,23,01,18,13.80
2016,07,23,01,19,13.80
2016,07,23,01,20,13.80
2016,07,23,01,21,13.80
2016,07,23,01,22,13.80
2016,07,23,01,23,13.80
2016,07,23,01,24,13.80
2016,07,23,01,25,13.80
2016,07,23,01,26,13.80
2016,07,23,01,27,13.80
2016,07,23,01,28,13.80
2016,07,23,01,29,13.80
2016,07,23,01,30,13.80
2016,07,23,01,31,13.80
2016,07,23,01,32,13.80
2016,07,23,01,33,13.80
2016,07,23,01,34,13.80
2016,07,23,01,35,13.80
2016,07,23,01,36,13.80
2016,07,23,01,37,13.80
2016,07,23,01,38,13.80
2016,07,23,01,39,13.70
2016,07,23,01,40,13.70
2016,07,23,01,41,13.70
2016,07,23,01,42,13.60
2016,07,23,01,43,13.60
2016,07,23,01,44,13.60
2016,07,23,01,45,13.60
2016,07,23,01,46,13.60
2016,07,23,01,47,13.60
2016,07,23,01,48,13.70
2016,07,23,01,49,13.70
2016,07,23,01,50,13.70
2016,07,23,01,51,13.70
2016,07,23,01,52,13.70
2016,07,23,01,53,13.70
2016,07,23,01,54,13.60
2016,07,23,01,55,13.60
2016,07,23,01,56,13.60
2016,07,23,01,57,13.60
2016,07,23,01,58,13.60
2016,07,23,01,59,13.60
2016,07,23,02,00,13.50
2016,07,23,02,01,13.50
2016,07,23,02,02,13.50
2016,07,23,02,03,13.50
2016,07,23,02,04,13.40
2016,07,23,02,05,13.40
2016,07,23,02,06,13.40
2016,07,23,02,07,13.40
2016,07,23,02,08,13.40
2016,07,23,02,09,13.40
2016,07,23,02,10,13.40
2016,07,23,02,11,13.30
2016,07,23,02,12,13.30
2016,07,23,02,13,13.30
2016,07,23,02,14,13.30
2016,07,23,02,15,13.20
2016,07,23,02,16,13.20
2016,07,23,02,17,13.20
2016,07,23,02,18,13.20
2016,07,23,02,19,13.10
2016,07,23,02,20,13.10
2016,07,23,02,21,13.10
2016,07,23,02,22,13.10
2016,07,23,02,23,13.10
2016,07,23,02,24,13.10
2016,07,23,02,25,13.00
2016,07,23,02,26,13.00
2016,07,23,02,27,13.00
2016,07,23,02,28,13.00
2016,07,23,02,29,13.00
2016,07,23,02,30,12.90
2016,07,23,02,31,12.90
2016,07,23,02,32,12.90
2016,07,23,02,33,12.90
2016,07,23,02,34,12.90
2016,07,23,02,35,12.90
2016,07,23,02,36,12.90
2016,07,23,02,37,12.90
2016,07,23,02,38,12.90
2016,07,23,02,39,12.90
2016,07,23,02,40,12.90
2016,07,23,02,41,12.90
2016,07,23,02,42,12.90
2016,07,23,02,43,12.90
2016,07,23,02,44,12.90
2016,07,23,02,45,12.90
2016,07,23,02,46,12.90
2016,07,23,02,47,12.90
2016,07,23,02,48,12.90
2016,07,23,02,49,12.90
2016,07,23,02,50,12.90
2016,07,23,02,51,12.90
2016,07,23,02,52,12.90
2016,07,23,02,53,12.90
2016,07,23,02,54,12.90
2016,07,23,02,55,12.90
2016,07,23,02,56,12.90
2016,07,23,02,57,12.90
2016,07,23,02,58,12.90
2016,07,23,02,59,12.90
2016,07,23,03,00,12.90
2016,07,23,03,01,12.90
2016,07,23,03,02,12.90
2016,07,23,03,03,12.90
2016,07,23,03,04,12.90
2016,07,23,03,05,12.90
2016,07,23,03,06,12.90
2016,07,23,03,07,12.90
2016,07,23,03,08,12.90
2016,07,23,03,09,12.90
2016,07,23,03,10,12.90
2016,07,23,03,11,12.90
2016,07,23,03,12,12.90
2016,07,23,03,13,13.00
2016,07,23,03,14,13.00
2016,07,23,03,15,13.00
2016,07,23,03,16,13.10
2016,07,23,03,17,13.10
2016,07,23,03,18,13.10
2016,07,23,03,19,13.20
2016,07,23,03,20,13.20
2016,07,23,03,21,13.20
2016,07,23,03,22,13.20
2016,07,23,03,23,13.30
2016,07,23,03,24,13.30
2016,07,23,03,25,13.30
2016,07,23,03,26,13.30
2016,07,23,03,27,13.30
2016,07,23,03,28,13.30
2016,07,23,03,29,13.30
2016,07,23,03,30,13.30
2016,07,23,03,31,13.30
2016,07,23,03,32,13.40
2016,07,23,03,33,13.40
2016,07,23,03,34,13.40
2016,07,23,03,35,13.40
2016,07,23,03,36,13.40
2016,07,23,03,37,13.40
2016,07,23,03,38,13.40
2016,07,23,03,39,13.40
2016,07,23,03,40,13.40
2016,07,23,03,41,13.40
2016,07,23,03,42,13.40
2016,07,23,03,43,13.40
2016,07,23,03,44,13.40
2016,07,23,03,45,13.40
2016,07,23,03,46,13.40
2016,07,23,03,47,13.40
2016,07,23,03,48,13.40
2016,07,23,03,49,13.40
2016,07,23,03,50,13.40
2016,07,23,03,51,13.40
2016,07,23,03,52,13.50
2016,07,23,03,53,13.50
2016,07,23,03,54,13.50
2016,07,23,03,55,13.50
2016,07,23,03,56,13.60
2016,07,23,03,57,13.60
2016,07,23,03,58,13.60
2016,07,23,03,59,13.70
2016,07,23,04,00,13.70
2016,07,23,04,01,13.70
2016,07,23,04,02,13.70
2016,07,23,04,03,13.70
2016,07,23,04,04,13.70
2016,07,23,04,05,13.70
2016,07,23,04,06,13.70
2016,07,23,04,07,13.70
2016,07,23,04,08,13.70
2016,07,23,04,09,13.70
2016,07,23,04,10,13.70
2016,07,23,04,11,13.70
2016,07,23,04,12,13.70
2016,07,23,04,13,13.70
2016,07,23,04,14,13.70
2016,07,23,04,15,13.70
2016,07,23,04,16,13.70
2016,07,23,04,17,13.70
2016,07,23,04,18,13.70
2016,07,23,04,19,13.70
2016,07,23,04,20,13.70
2016,07,23,04,21,13.70
2016,07,23,04,22,13.70
2016,07,23,04,23,13.70
2016,07,23,04,24,13.70
2016,07,23,04,25,13.80
2016,07,23,04,26,13.80
2016,07,23,04,27,13.80
2016,07,23,04,28,13.80
2016,07,23,04,29,13.80
2016,07,23,04,30,13.80
2016,07,23,04,31,13.80
2016,07,23,04,32,13.80
2016,07,23,04,33,13.80
2016,07,23,04,34,13.80
2016,07,23,04,35,13.80
2016,07,23,04,36,13.80
2016,07,23,04,37,13.80
2016,07,23,04,38,13.80
2016,07,23,04,39,13.80
2016,07,23,04,40,13.80
2016,07,23,04,41,13.80
2016,07,23,04,42,13.80
2016,07,23,04,43,13.80
2016,07,23,04,44,13.80
2016,07,23,04,45,13.80
2016,07,23,04,46,13.80
2016,07,23,04,47,13.80
2016,07,23,04,48,13.80
2016,07,23,04,49,13.90
2016,07,23,04,50,13.90
2016,07,23,04,51,13.90
2016,07,23,04,52,13.90
2016,07,23,04,53,13.90
2016,07,23,04,54,13.90
2016,07,23,04,55,13.90
2016,07,23,04,56,13.90
2016,07,23,04,57,13.90
2016,07,23,04,58,13.90
2016,07,23,04,59,14.00
2016,07,23,05,00,14.00
2016,07,23,05,01,14.00
2016,07,23,05,02,14.00
2016,07,23,05,03,14.00
2016,07,23,05,04,14.00
2016,07,23,05,05,14.00
2016,07,23,05,06,14.00
2016,07,23,05,07,14.00
2016,07,23,05,08,14.00
2016,07,23,05,09,14.00
2016,07,23,05,10,14.00
2016,07,23,05,11,13.90
2016,07,23,05,12,13.90
2016,07,23,05,13,13.90
2016,07,23,05,14,13.90
2016,07,23,05,15,13.90
2016,07,23,05,16,13.90
2016,07,23,05,17,13.90
2016,07,23,05,18,13.90
2016,07,23,05,19,13.90
2016,07,23,05,20,13.90
2016,07,23,05,21,13.90
2016,07,23,05,22,13.90
2016,07,23,05,23,13.90
2016,07,23,05,24,13.90
2016,07,23,05,25,13.90
2016,07,23,05,26,13.90
2016,07,23,05,27,13.90
2016,07,23,05,28,14.00
2016,07,23,05,29,14.00
2016,07,23,05,30,14.00
2016,07,23,05,31,14.00
2016,07,23,05,32,14.00
2016,07,23,05,33,14.00
2016,07,23,05,34,14.00
2016,07,23,05,35,14.00
2016,07,23,05,36,14.00
2016,07,23,05,37,14.10
2016,07,23,05,38,14.10
2016,07,23,05,39,14.10
2016,07,23,05,40,14.10
2016,07,23,05,41,14.10
2016,07,23,05,42,14.10
2016,07,23,05,43,14.10
2016,07,23,05,44,14.10
2016,07,23,05,45,14.10
2016,07,23,05,46,14.10
2016,07,23,05,47,14.10
2016,07,23,05,48,14.10
2016,07,23,05,49,14.10
2016,07,23,05,50,14.10
2016,07,23,05,51,14.10
2016,07,23,05,52,14.10
2016,07,23,05,53,14.10
2016,07,23,05,54,14.10
2016,07,23,05,55,14.10
2016,07,23,05,56,14.10
2016,07,23,05,57,14.10
2016,07,23,05,58,14.10
2016,07,23,05,59,14.10
2016,07,23,06,00,14.20
2016,07,23,06,01,14.20
2016,07,23,06,02,14.20
2016,07,23,06,03,14.20
2016,07,23,06,04,14.20
2016,07,23,06,05,14.20
2016,07,23,06,06,14.20
2016,07,23,06,07,14.20
2016,07,23,06,08,14.20
2016,07,23,06,09,14.20
2016,07,23,06,10,14.20
2016,07,23,06,11,14.30
2016,07,23,06,12,14.30
2016,07,23,06,13,14.30
2016,07,23,06,14,14.30
2016,07,23,06,15,14.30
2016,07,23,06,16,14.30
2016,07,23,06,17,14.30
2016,07,23,06,18,14.30
2016,07,23,06,19,14.30
2016,07,23,06,20,14.30
2016,07,23,06,21,14.30
2016,07,23,06,22,14.30
2016,07,23,06,23,14.30
2016,07,23,06,24,14.40
2016,07,23,06,25,14.40
2016,07,23,06,26,14.40
2016,07,23,06,27,14.40
2016,07,23,06,28,14.40
2016,07,23,06,29,14.40
2016,07,23,06,30,14.40
2016,07,23,06,31,14.40
2016,07,23,06,32,14.50
2016,07,23,06,33,14.50
2016,07,23,06,34,14.50
2016,07,23,06,35,14.60
2016,07,23,06,36,14.60
2016,07,23,06,37,14.60
2016,07,23,06,38,14.60
2016,07,23,06,39,14.60
2016,07,23,06,40,14.70
2016,07,23,06,41,14.70
2016,07,23,06,42,14.70
2016,07,23,06,43,14.70
2016,07,23,06,44,14.70
2016,07,23,06,45,14.80
2016,07,23,06,46,14.80
2016,07,23,06,47,14.80
2016,07,23,06,48,14.80
2016,07,23,06,49,14.80
2016,07,23,06,50,14.80
2016,07,23,06,51,14.90
2016,07,23,06,52,14.90
2016,07,23,06,53,14.90
2016,07,23,06,54,14.90
2016,07,23,06,55,14.90
2016,07,23,06,56,14.90
2016,07,23,06,57,14.90
2016,07,23,06,58,14.90
2016,07,23,06,59,14.90
2016,07,23,07,00,14.90
2016,07,23,07,01,14.90
2016,07,23,07,02,14.90
2016,07,23,07,03,14.90
2016,07,23,07,04,14.90
2016,07,23,07,05,14.90
2016,07,23,07,06,14.90
2016,07,23,07,07,14.90
2016,07,23,07,08,14.90
2016,07,23,07,09,14.90
2016,07,23,07,10,14.90
2016,07,23,07,11,14.90
2016,07,23,07,12,14.90
2016,07,23,07,13,14.90
2016,07,23,07,14,14.90
2016,07,23,07,15,14.90
2016,07,23,07,16,14.90
2016,07,23,07,17,14.90
2016,07,23,07,18,14.90
2016,07,23,07,19,14.90
2016,07,23,07,20,14.90
2016,07,23,07,21,15.00
2016,07,23,07,22,15.00
2016,07,23,07,23,15.00
2016,07,23,07,24,15.00
2016,07,23,07,25,15.00
2016,07,23,07,26,15.00
2016,07,23,07,27,15.00
2016,07,23,07,28,15.00
2016,07,23,07,29,15.10
2016,07,23,07,30,15.10
2016,07,23,07,31,15.10
2016,07,23,07,32,15.10
2016,07,23,07,33,15.10
2016,07,23,07,34,15.10
2016,07,23,07,35,15.10
2016,07,23,07,36,15.10
2016,07,23,07,37,15.20
2016,07,23,07,38,15.20
2016,07,23,07,39,15.20
2016,07,23,07,40,15.20
2016,07,23,07,41,15.20
2016,07,23,07,42,15.20
2016,07,23,07,43,15.20
2016,07,23,07,44,15.20
2016,07,23,07,45,15.20
2016,07,23,07,46,15.30
2016,07,23,07,47,15.30
2016,07,23,07,48,15.30
2016,07,23,07,49,15.30
2016,07,23,07,50,15.30
2016,07,23,07,51,15.30
2016,07,23,07,52,15.30
2016,07,23,07,53,15.30
2016,07,23,07,54,15.30
2016,07,23,07,55,15.40
2016,07,23,07,56,15.40
2016,07,23,07,57,15.40
2016,07,23,07,58,15.40
2016,07,23,07,59,15.50
2016,07,23,08,00,15.50
2016,07,23,08,01,15.60
2016,07,23,08,02,15.60
2016,07,23,08,03,15.60
2016,07,23,08,04,15.60
2016,07,23,08,05,15.70
2016,07,23,08,06,15.70
2016,07,23,08,07,15.70
2016,07,23,08,08,15.70
2016,07,23,08,09,15.70
2016,07,23,08,10,15.80
2016,07,23,08,11,15.80
2016,07,23,08,12,15.80
2016,07,23,08,13,15.80
2016,07,23,08,14,15.80
2016,07,23,08,15,15.80
2016,07,23,08,16,15.80
2016,07,23,08,17,15.80
2016,07,23,08,18,15.80
2016,07,23,08,19,15.80
2016,07,23,08,20,15.80
2016,07,23,08,21,15.80
2016,07,23,08,22,15.80
2016,07,23,08,23,15.90
2016,07,23,08,24,15.90
2016,07,23,08,25,15.90
2016,07,23,08,26,16.00
2016,07,23,08,27,16.10
2016,07,23,08,28,16.10
2016,07,23,08,29,16.20
2016,07,23,08,30,16.20
2016,07,23,08,31,16.30
2016,07,23,08,32,16.30
2016,07,23,08,33,16.30
2016,07,23,08,34,16.30
2016,07,23,08,35,16.30
2016,07,23,08,36,16.30
2016,07,23,08,37,16.30
2016,07,23,08,38,16.40
2016,07,23,08,39,16.40
2016,07,23,08,40,16.40
2016,07,23,08,41,16.40
2016,07,23,08,42,16.40
2016,07,23,08,43,16.40
2016,07,23,08,44,16.40
2016,07,23,08,45,16.40
2016,07,23,08,46,16.40
2016,07,23,08,47,16.50
2016,07,23,08,48,16.50
2016,07,23,08,49,16.50
2016,07,23,08,50,16.60
2016,07,23,08,51,16.60
2016,07,23,08,52,16.60
2016,07,23,08,53,16.60
2016,07,23,08,54,16.70
2016,07,23,08,55,16.70
2016,07,23,08,56,16.70
2016,07,23,08,57,16.70
2016,07,23,08,58,16.80
2016,07,23,08,59,16.80
2016,07,23,09,00,16.80
2016,07,23,09,01,16.90
2016,07,23,09,02,16.90
2016,07,23,09,03,16.90
2016,07,23,09,04,16.90
2016,07,23,09,05,16.90
2016,07,23,09,06,17.00
2016,07,23,09,07,17.00
2016,07,23,09,08,17.00
2016,07,23,09,09,17.10
2016,07,23,09,10,17.10
2016,07,23,09,11,17.10
2016,07,23,09,12,17.10
2016,07,23,09,13,17.20
2016,07,23,09,14,17.10
2016,07,23,09,15,17.10
2016,07,23,09,16,17.10
2016,07,23,09,17,17.10
2016,07,23,09,18,17.10
2016,07,23,09,19,17.20
2016,07,23,09,20,17.20
2016,07,23,09,21,17.30
2016,07,23,09,22,17.30
2016,07,23,09,23,17.40
2016,07,23,09,24,17.40
2016,07,23,09,25,17.50
2016,07,23,09,26,17.50
2016,07,23,09,27,17.60
2016,07,23,09,28,17.60
2016,07,23,09,29,17.60
2016,07,23,09,30,17.60
2016,07,23,09,31,17.60
2016,07,23,09,32,17.60
2016,07,23,09,33,17.60
2016,07,23,09,34,17.60
2016,07,23,09,35,17.60
2016,07,23,09,36,17.70
2016,07,23,09,37,17.70
2016,07,23,09,38,17.70
2016,07,23,09,39,17.80
2016,07,23,09,40,17.80
2016,07,23,09,41,17.80
2016,07,23,09,42,17.80
2016,07,23,09,43,17.80
2016,07,23,09,44,17.90
2016,07,23,09,45,17.90
2016,07,23,09,46,18.00
2016,07,23,09,47,18.00
2016,07,23,09,48,18.10
2016,07,23,09,49,18.10
2016,07,23,09,50,18.10
2016,07,23,09,51,18.20
2016,07,23,09,52,18.20
2016,07,23,09,53,18.20
2016,07,23,09,54,18.20
2016,07,23,09,55,18.20
2016,07,23,09,56,18.20
2016,07,23,09,57,18.20
2016,07,23,09,58,18.30
2016,07,23,09,59,18.30
2016,07,23,10,00,18.30
2016,07,23,10,01,18.30
2016,07,23,10,02,18.40
2016,07,23,10,03,18.40
2016,07,23,10,04,18.40
2016,07,23,10,05,18.40
2016,07,23,10,06,18.50
2016,07,23,10,07,18.50
2016,07,23,10,08,18.50
2016,07,23,10,09,18.60
2016,07,23,10,10,18.60
2016,07,23,10,11,18.60
2016,07,23,10,12,18.60
2016,07,23,10,13,18.60
2016,07,23,10,14,18.50
2016,07,23,10,15,18.50
2016,07,23,10,16,18.50
2016,07,23,10,17,18.50
2016,07,23,10,18,18.50
2016,07,23,10,19,18.50
2016,07,23,10,20,18.60
2016,07,23,10,21,18.60
2016,07,23,10,22,18.60
2016,07,23,10,23,18.60
2016,07,23,10,24,18.60
2016,07,23,10,25,18.60
2016,07,23,10,26,18.60
2016,07,23,10,27,18.60
2016,07,23,10,28,18.60
2016,07,23,10,29,18.60
2016,07,23,10,30,18.60
2016,07,23,10,31,18.60
2016,07,23,10,32,18.70
2016,07,23,10,33,18.70
2016,07,23,10,34,18.80
2016,07,23,10,35,18.80
2016,07,23,10,36,18.80
2016,07,23,10,37,18.90
2016,07,23,10,38,18.90
2016,07,23,10,39,18.90
2016,07,23,10,40,18.90
2016,07,23,10,41,18.90
2016,07,23,10,42,18.90
2016,07,23,10,43,18.90
2016,07,23,10,44,18.90
2016,07,23,10,45,18.90
2016,07,23,10,46,19.00
2016,07,23,10,47,19.00
2016,07,23,10,48,19.10
2016,07,23,10,49,19.10
2016,07,23,10,50,19.10
2016,07,23,10,51,19.10
2016,07,23,10,52,19.10
2016,07,23,10,53,19.10
2016,07,23,10,54,19.20
2016,07,23,10,55,19.20
2016,07,23,10,56,19.30
2016,07,23,10,57,19.40
2016,07,23,10,58,19.50
2016,07,23,10,59,19.60
2016,07,23,11,00,19.70
2016,07,23,11,01,19.70
2016,07,23,11,02,19.70
2016,07,23,11,03,19.80
2016,07,23,11,04,19.80
2016,07,23,11,05,19.80
2016,07,23,11,06,19.90
2016,07,23,11,07,20.00
2016,07,23,11,08,20.10
2016,07,23,11,09,20.20
2016,07,23,11,10,20.20
2016,07,23,11,11,20.30
2016,07,23,11,12,20.30
2016,07,23,11,13,20.30
2016,07,23,11,14,20.30
2016,07,23,11,15,20.30
2016,07,23,11,16,20.40
2016,07,23,11,17,20.50
2016,07,23,11,18,20.50
2016,07,23,11,19,20.60
2016,07,23,11,20,20.70
2016,07,23,11,21,20.70
2016,07,23,11,22,20.80
2016,07,23,11,23,20.80
2016,07,23,11,24,20.70
2016,07,23,11,25,20.70
2016,07,23,11,26,20.60
2016,07,23,11,27,20.50
2016,07,23,11,28,20.40
2016,07,23,11,29,20.30
2016,07,23,11,30,20.20
2016,07,23,11,31,20.10
2016,07,23,11,32,20.00
2016,07,23,11,33,20.00
2016,07,23,11,34,20.00
2016,07,23,11,35,20.00
2016,07,23,11,36,20.10
2016,07,23,11,37,20.10
2016,07,23,11,38,20.00
2016,07,23,11,39,20.00
2016,07,23,11,40,20.00
2016,07,23,11,41,20.00
2016,07,23,11,42,20.00
2016,07,23,11,43,19.90
2016,07,23,11,44,19.90
2016,07,23,11,45,19.80
2016,07,23,11,46,19.80
2016,07,23,11,47,19.80
2016,07,23,11,48,19.70
2016,07,23,11,49,19.60
2016,07,23,11,50,19.60
2016,07,23,11,51,19.50
2016,07,23,11,52,19.50
2016,07,23,11,53,19.50
2016,07,23,11,54,19.40
2016,07,23,11,55,19.40
2016,07,23,11,56,19.40
2016,07,23,11,57,19.30
2016,07,23,11,58,19.30
2016,07,23,11,59,19.30
2016,07,23,12,00,19.30
2016,07,23,12,01,19.30
2016,07,23,12,02,19.30
2016,07,23,12,03,19.30
2016,07,23,12,04,19.30
2016,07,23,12,05,19.40
2016,07,23,12,06,19.30
2016,07,23,12,07,19.30
2016,07,23,12,08,19.30
2016,07,23,12,09,19.30
2016,07,23,12,10,19.20
2016,07,23,12,11,19.20
2016,07,23,12,12,19.20
2016,07,23,12,13,19.20
2016,07,23,12,14,19.20
2016,07,23,12,15,19.20
2016,07,23,12,16,19.20
2016,07,23,12,17,19.20
2016,07,23,12,18,19.20
2016,07,23,12,19,19.10
2016,07,23,12,20,19.10
2016,07,23,12,21,19.10
2016,07,23,12,22,19.10
2016,07,23,12,23,19.10
2016,07,23,12,24,19.10
2016,07,23,12,25,19.10
2016,07,23,12,26,19.00
2016,07,23,12,27,19.00
2016,07,23,12,28,19.00
2016,07,23,12,29,19.00
2016,07,23,12,30,19.10
2016,07,23,12,31,19.10
2016,07,23,12,32,19.10
2016,07,23,12,33,19.20
2016,07,23,12,34,19.20
2016,07,23,12,35,19.20
2016,07,23,12,36,19.10
2016,07,23,12,37,19.20
2016,07,23,12,38,19.20
2016,07,23,12,39,19.20
2016,07,23,12,40,19.20
2016,07,23,12,41,19.20
2016,07,23,12,42,19.30
2016,07,23,12,43,19.30
2016,07,23,12,44,19.30
2016,07,23,12,45,19.30
2016,07,23,12,46,19.30
2016,07,23,12,47,19.30
2016,07,23,12,48,19.30
2016,07,23,12,49,19.40
2016,07,23,12,50,19.40
2016,07,23,12,51,19.40
2016,07,23,12,52,19.50
2016,07,23,12,53,19.50
2016,07,23,12,54,19.60
2016,07,23,12,55,19.60
2016,07,23,12,56,19.60
2016,07,23,12,57,19.60
2016,07,23,12,58,19.70
2016,07,23,12,59,19.70
2016,07,23,13,00,19.70
2016,07,23,13,01,19.70
2016,07,23,13,02,19.70
2016,07,23,13,03,19.70
2016,07,23,13,04,19.60
2016,07,23,13,05,19.60
2016,07,23,13,06,19.70
2016,07,23,13,07,19.70
2016,07,23,13,08,19.70
2016,07,23,13,09,19.70
2016,07,23,13,10,19.80
2016,07,23,13,11,19.90
2016,07,23,13,12,20.00
2016,07,23,13,13,20.00
2016,07,23,13,14,20.10
2016,07,23,13,15,20.20
2016,07,23,13,16,20.20
2016,07,23,13,17,20.30
2016,07,23,13,18,20.40
2016,07,23,13,19,20.50
2016,07,23,13,20,20.60
2016,07,23,13,21,20.70
2016,07,23,13,22,20.70
2016,07,23,13,23,20.80
2016,07,23,13,24,20.90
2016,07,23,13,25,21.00
2016,07,23,13,26,21.10
2016,07,23,13,27,21.20
2016,07,23,13,28,21.30
2016,07,23,13,29,21.40
2016,07,23,13,30,21.40
2016,07,23,13,31,21.40
2016,07,23,13,32,21.40
2016,07,23,13,33,21.40
2016,07,23,13,34,21.30
2016,07,23,13,35,21.30
2016,07,23,13,36,21.20
2016,07,23,13,37,21.20
2016,07,23,13,38,21.10
2016,07,23,13,39,21.10
2016,07,23,13,40,21.20
2016,07,23,13,41,21.20
2016,07,23,13,42,21.30
2016,07,23,13,43,21.30
2016,07,23,13,44,21.40
2016,07,23,13,45,21.50
2016,07,23,13,46,21.50
2016,07,23,13,47,21.60
2016,07,23,13,48,21.60
2016,07,23,13,49,21.60
2016,07,23,13,50,21.60
2016,07,23,13,51,21.70
2016,07,23,13,52,21.70
2016,07,23,13,53,21.70
2016,07,23,13,54,21.70
2016,07,23,13,55,21.70
2016,07,23,13,56,21.60
2016,07,23,13,57,21.60
2016,07,23,13,58,21.60
2016,07,23,13,59,21.60
2016,07,23,14,00,21.60
2016,07,23,14,01,21.50
2016,07,23,14,02,21.50
2016,07,23,14,03,21.40
2016,07,23,14,04,21.40
2016,07,23,14,05,21.30
2016,07,23,14,06,21.30
2016,07,23,14,07,21.20
2016,07,23,14,08,21.20
2016,07,23,14,09,21.20
2016,07,23,14,10,21.30
2016,07,23,14,11,21.30
2016,07,23,14,12,21.40
2016,07,23,14,13,21.40
2016,07,23,14,14,21.50
2016,07,23,14,15,21.70
2016,07,23,14,16,21.80
2016,07,23,14,17,21.80
2016,07,23,14,18,21.80
2016,07,23,14,19,21.80
2016,07,23,14,20,21.80
2016,07,23,14,21,21.90
2016,07,23,14,22,21.90
2016,07,23,14,23,21.80
2016,07,23,14,24,21.80
2016,07,23,14,25,21.80
2016,07,23,14,26,21.80
2016,07,23,14,27,21.80
2016,07,23,14,28,21.70
2016,07,23,14,29,21.70
2016,07,23,14,30,21.70
2016,07,23,14,31,21.60
2016,07,23,14,32,21.60
2016,07,23,14,33,21.60
2016,07,23,14,34,21.70
2016,07,23,14,35,21.80
2016,07,23,14,36,21.90
2016,07,23,14,37,22.10
2016,07,23,14,38,22.20
2016,07,23,14,39,22.20
2016,07,23,14,40,22.20
2016,07,23,14,41,22.20
2016,07,23,14,42,22.20
2016,07,23,14,43,22.20
2016,07,23,14,44,22.20
2016,07,23,14,45,22.20
2016,07,23,14,46,22.20
2016,07,23,14,47,22.10
2016,07,23,14,48,22.10
2016,07,23,14,49,22.10
2016,07,23,14,50,22.10
2016,07,23,14,51,22.00
2016,07,23,14,52,22.00
2016,07,23,14,53,21.90
2016,07,23,14,54,21.90
2016,07,23,14,55,21.90
2016,07,23,14,56,22.00
2016,07,23,14,57,22.10
2016,07,23,14,58,22.10
2016,07,23,14,59,22.20
2016,07,23,15,00,22.20
2016,07,23,15,01,22.30
2016,07,23,15,02,22.30
2016,07,23,15,03,22.40
2016,07,23,15,04,22.50
2016,07,23,15,05,22.50
2016,07,23,15,06,22.60
2016,07,23,15,07,22.60
2016,07,23,15,08,22.60
2016,07,23,15,09,22.60
2016,07,23,15,10,22.50
2016,07,23,15,11,22.50
2016,07,23,15,12,22.40
2016,07,23,15,13,22.40
2016,07,23,15,14,22.30
2016,07,23,15,15,22.20
2016,07,23,15,16,22.10
2016,07,23,15,17,22.00
2016,07,23,15,18,21.90
2016,07,23,15,19,21.80
2016,07,23,15,20,21.70
2016,07,23,15,21,21.60
2016,07,23,15,22,21.50
2016,07,23,15,23,21.40
2016,07,23,15,24,21.50
2016,07,23,15,25,21.50
2016,07,23,15,26,21.60
2016,07,23,15,27,21.80
2016,07,23,15,28,21.90
2016,07,23,15,29,22.10
2016,07,23,15,30,22.30
2016,07,23,15,31,22.60
2016,07,23,15,32,22.70
2016,07,23,15,33,22.90
2016,07,23,15,34,23.10
2016,07,23,15,35,23.20
2016,07,23,15,36,23.30
2016,07,23,15,37,23.30
2016,07,23,15,38,23.20
2016,07,23,15,39,23.20
2016,07,23,15,40,23.10
2016,07,23,15,41,23.10
2016,07,23,15,42,23.20
2016,07,23,15,43,23.30
2016,07,23,15,44,23.50
2016,07,23,15,45,23.70
2016,07,23,15,46,23.80
2016,07,23,15,47,23.90
2016,07,23,15,48,23.90
2016,07,23,15,49,24.00
2016,07,23,15,50,23.90
2016,07,23,15,51,24.00
2016,07,23,15,52,24.00
2016,07,23,15,53,24.00
2016,07,23,15,54,23.90
2016,07,23,15,55,23.80
2016,07,23,15,56,23.80
2016,07,23,15,57,23.80
2016,07,23,15,58,23.90
2016,07,23,15,59,23.90
2016,07,23,16,00,23.90
2016,07,23,16,01,23.90
2016,07,23,16,02,23.90
2016,07,23,16,03,23.90
2016,07,23,16,04,23.90
2016,07,23,16,05,23.90
2016,07,23,16,06,24.00
2016,07,23,16,07,24.10
2016,07,23,16,08,24.10
2016,07,23,16,09,24.20
2016,07,23,16,10,24.10
2016,07,23,16,11,24.10
2016,07,23,16,12,24.20
2016,07,23,16,13,24.20
2016,07,23,16,14,24.20
2016,07,23,16,15,24.30
2016,07,23,16,16,24.30
2016,07,23,16,17,24.30
2016,07,23,16,18,24.10
2016,07,23,16,19,24.00
2016,07,23,16,20,23.90
2016,07,23,16,21,23.80
2016,07,23,16,22,23.80
2016,07,23,16,23,23.80
2016,07,23,16,24,23.90
2016,07,23,16,25,23.90
2016,07,23,16,26,23.90
2016,07,23,16,27,23.80
2016,07,23,16,28,23.80
2016,07,23,16,29,23.80
2016,07,23,16,30,23.90
2016,07,23,16,31,23.90
2016,07,23,16,32,23.90
2016,07,23,16,33,23.90
2016,07,23,16,34,23.80
2016,07,23,16,35,23.80
2016,07,23,16,36,23.80
2016,07,23,16,37,23.80
2016,07,23,16,38,23.80
2016,07,23,16,39,23.80
2016,07,23,16,40,23.70
2016,07,23,16,41,23.70
2016,07,23,16,42,23.70
2016,07,23,16,43,23.80
2016,07,23,16,44,23.90
2016,07,23,16,45,23.90
2016,07,23,16,46,23.90
2016,07,23,16,47,23.80
2016,07,23,16,48,23.80
2016,07,23,16,49,23.70
2016,07,23,16,50,23.70
2016,07,23,16,51,23.60
2016,07,23,16,52,23.50
2016,07,23,16,53,23.40
2016,07,23,16,54,23.40
2016,07,23,16,55,23.50
2016,07,23,16,56,23.50
2016,07,23,16,57,23.40
2016,07,23,16,58,23.40
2016,07,23,16,59,23.50
2016,07,23,17,00,23.50
2016,07,23,17,01,23.60
2016,07,23,17,02,23.60
2016,07,23,17,03,23.70
2016,07,23,17,04,23.70
2016,07,23,17,05,23.60
2016,07,23,17,06,23.40
2016,07,23,17,07,23.40
2016,07,23,17,08,23.40
2016,07,23,17,09,23.40
2016,07,23,17,10,23.40
2016,07,23,17,11,23.30
2016,07,23,17,12,23.30
2016,07,23,17,13,23.40
2016,07,23,17,14,23.50
2016,07,23,17,15,23.60
2016,07,23,17,16,23.70
2016,07,23,17,17,23.70
2016,07,23,17,18,23.70
2016,07,23,17,19,23.70